Location: Bagnara
(41.0500°N, 14.7833°E)
Time: 15:26:24
(UTC+00:00)

FALCON 9 DEB - Pass Details

Date: 01 November 2021
Orbit: 344 x 354 km, 53.0° (Epoch: 29 November)

Event Time Altitude Azimuth Distance (km) Brightness Sun altitude
Rises 17:10:04 0° 288° (WNW) 2,170 7.9 -14.3°
Reaches altitude 10° 17:13:12 10° 325° (NW) 1,335 6.0 -14.9°
Maximum altitude 17:14:16 11° 346° (NNW) 1,259 5.6 -15.1°
Drops below altitude 10° 17:15:20 10° 7° (N) 1,341 5.5 -15.3°
Enters shadow 17:15:36 - 12° (NNE) 1,384 5.5 -15.4°
